Regional Weather Roundup
Issued by NWS

Home | Current Version | Previous Version | Graphics & Text | Print | Product List | Glossary On
Versions: 1 2 3 4 5 6 7 8 9 10 11 12 13 14 15 16 17 18 19 20 21 22 23 24 25 26 27 28 29 30 31 32 33 34 35 36 37 38 39 40 41 42 43 44 45 46 47 48 49 50
041
ASUS43 KTOP 110808
RWRKS

WEATHER ROUNDUP FOR KANSAS
NATIONAL WEATHER SERVICE GOODLAND KS
200 AM CST THU FEB 11 2016

NOTE:  "FAIR" INDICATES FEW OR NO CLOUDS BELOW 12,000 FEET WITH NO
SIGNIFICANT WEATHER AND/OR OBSTRUCTIONS TO VISIBILITY.

KSZ001>006-013>018-027>032-041>047-110900-
NORTHWEST KANSAS

CITY           SKY/WX    TMP DP  RH WIND       PRES   REMARKS
GOODLAND       CLEAR     33  25  72 NW8       30.15S
HAYS           CLEAR     36  23  60 N13       30.12R WCI  27
HILL CITY      CLEAR     30  27  88 N7        30.16R
RUSSELL        CLEAR     34  29  82 NE10      30.10R WCI  26
$$

KSZ061>065-074>080-084>089-110900-
SOUTHWEST KANSAS

CITY           SKY/WX    TMP DP  RH WIND       PRES   REMARKS
DODGE CITY     CLOUDY    37  27  67 N13       30.10R WCI  29
ELKHART          N/A     43  17  35 W8          N/A
GARDEN CITY    CLOUDY    39  27  62 N16       30.12R WCI  30
GREAT BEND     CLOUDY    37  27  65 N10       30.10R WCI  30
LIBERAL        CLOUDY    34  18  51 NW9       30.12R
PRATT          PTCLDY    34  28  76 N14       30.05R WCI  25
$$

KSZ066>073-081>083-090>101-110900-
SOUTHEAST KANSAS

CITY           SKY/WX    TMP DP  RH WIND       PRES   REMARKS
CHANUTE        CLOUDY    30  23  75 NW3       30.02R
COFFEYVILLE    CLOUDY    34  27  75 N7        30.00R
HUTCHINSON     CLOUDY    40  30  67 N13       30.07R WCI  32
MEDICINE LODGE   N/A     43  30  60 N8        30.04R
NEWTON         CLOUDY    37  27  65 N14       30.06R WCI  29
PARSONS        CLOUDY    31  25  78 N5        30.01R
WICHITA INTL   CLOUDY    41  30  65 N10       30.04R
WICHITA JABRA  CLOUDY    35  30  82 N9        30.04R
WICHITA MCCONL CLOUDY    40  31  70 N12       30.03R WCI  33
WINFIELD       CLOUDY    37  29  72 N7        30.03R
$$

KSZ007>012-019>026-033>040-048>060-102>105-110900-
NORTHEAST KANSAS

CITY           SKY/WX    TMP DP  RH WIND       PRES   REMARKS
CONCORDIA      CLEAR     28  24  85 N12       30.14R WCI  18
EMPORIA        CLOUDY    32  24  72 N9        30.06R
LAWRENCE       CLEAR     25  20  81 NE5       30.14R
MANHATTAN      CLEAR     30  23  75 N15       30.12R WCI  19
MARYSVILLE     CLOUDY    28  25  86 NE8       30.15S
OLATHE IND     PTCLDY    25  21  85 N10       30.11R WCI  15
OLATHE EXE     PTCLDY    24  20  84 NE15      30.11R WCI  11
SALINA         CLOUDY    34  27  75 N13       30.12R WCI  25
TOPEKA BILLARD CLEAR     27  21  78 NE9       30.14R
TOPEKA FORBES  CLEAR     28  22  78 NE10      30.12R WCI  19
$$




USA.gov is the U.S. government's official web portal to all federal, state and local government web resources and services.